GW1062 Weather Reports


Display with metric or nautical units.
time (UTC)temp
F
wind
direction
speed
MPH
gust
MPH
rain 1hr
in
rain 24hr
in
rain mn
in
humidity
%
barometer
mb
20260509011542 69 4 4.0 10.0 0.00 0.00 0.00 30 965.2
20260509010041 71 3 9.0 13.0 0.00 0.00 0.00 29 964.9
20260509004552 71 4 7.0 12.0 0.00 0.00 0.00 27 964.9
20260509003049 72 4 2.0 6.0 0.00 0.00 0.00 27 964.9
20260509001538 73 4 10.0 13.0 0.00 0.00 0.00 24 965.0
20260509000038 74 5 6.0 15.0 0.00 0.00 0.00 24 965.0
20260508234538 74 4 9.0 15.0 0.00 0.00 0.00 23 965.0
20260508233037 74 4 5.0 12.0 0.00 0.00 0.00 23 965.2
20260508231534 74 5 8.0 14.0 0.00 0.00 0.00 23 965.4
20260508230032 74 6 7.0 13.0 0.00 0.00 0.00 22 965.4
20260508224538 74 6 4.0 11.0 0.00 0.00 0.00 26 965.5
20260508223042 74 5 4.0 8.0 0.00 0.00 0.00 22 965.6
20260508221529 72 6 3.0 10.0 0.00 0.00 0.00 24 965.6
20260508220027 74 5 7.0 11.0 0.00 0.00 0.00 24 965.8
20260508214525 74 4 10.0 16.0 0.00 0.00 0.00 22 965.9
20260508213025 74 6 5.0 12.0 0.00 0.00 0.00 21 966.0
20260508211521 74 5 5.0 17.0 0.00 0.00 0.00 24 966.2
20260508210027 74 5 8.0 16.0 0.00 0.00 0.00 22 966.3
20260508204518 73 4 3.0 13.0 0.00 0.00 0.00 22 966.6
20260508203017 74 5 8.0 16.0 0.00 0.00 0.00 23 966.9
20260508201517 73 4 7.0 18.0 0.00 0.00 0.00 23 967.2
20260508200016 72 6 8.0 17.0 0.00 0.00 0.00 23 967.4
20260508194508 72 4 1.0 19.0 0.00 0.00 0.00 24 967.7
20260508193006 71 6 6.0 14.0 0.00 0.00 0.00 26 967.8
20260508191503 72 6 0.0 10.0 0.00 0.00 0.00 25 968.0
20260508190003 72 4 6.0 12.0 0.00 0.00 0.00 23 968.1
20260508184601 71 5 7.0 16.0 0.00 0.00 0.00 23 968.3
20260508183058 71 4 2.0 10.0 0.00 0.00 0.00 25 968.3
20260508181558 71 6 1.0 13.0 0.00 0.00 0.00 27 968.5
20260508180054 70 5 7.0 14.0 0.00 0.00 0.00 25 968.7
20260508174556 69 360 2.0 8.0 0.00 0.00 0.00 26 968.9
20260508173049 69 6 6.0 13.0 0.00 0.00 0.00 27 969.2
20260508171547 69 4 4.0 13.0 0.00 0.00 0.00 25 969.4
20260508170046 68 4 1.0 8.0 0.00 0.00 0.00 26 969.6
20260508164542 68 6 6.0 11.0 0.00 0.00 0.00 26 969.7
20260508163040 68 6 3.0 12.0 0.00 0.00 0.00 28 969.8
20260508161538 67 3 4.0 12.0 0.00 0.00 0.00 28 969.9
20260508160036 67 5 6.0 11.0 0.00 0.00 0.00 30 970.1
20260508154534 67 4 0.0 10.0 0.00 0.00 0.00 30 970.2
20260508153038 66 6 2.0 8.0 0.00 0.00 0.00 34 970.2
20260508151527 65 2 2.0 8.0 0.00 0.00 0.00 35 970.4
20260508150046 64 2 1.0 9.0 0.00 0.00 0.00 41 970.5
20260508144515 63 2 2.0 8.0 0.00 0.00 0.00 44 970.6
20260508143015 61 1 3.0 6.0 0.00 0.00 0.00 47 970.7
20260508141508 59 2 3.0 7.0 0.00 0.00 0.00 48 970.8
20260508140007 58 2 4.0 7.0 0.00 0.00 0.00 48 970.9
20260508134601 56 1 4.0 7.0 0.00 0.00 0.00 49 971.0
20260508133108 54 2 3.0 6.0 0.00 0.00 0.00 49 971.0
20260508131600 52 1 4.0 5.0 0.00 0.00 0.00 49 971.0
20260508130048 50 1 3.0 6.0 0.00 0.00 0.00 50 970.9
20260508124545 49 1 3.0 5.0 0.00 0.00 0.00 51 970.8
20260508123044 48 4 1.0 3.0 0.00 0.00 0.00 53 970.9
20260508121544 46 360 0.0 2.0 0.00 0.00 0.00 54 970.8
20260508120045 44 1 0.0 2.0 0.00 0.00 0.00 57 970.8
20260508114541 43 1 0.0 3.0 0.00 0.00 0.00 54 970.8
20260508113040 44 2 1.0 3.0 0.00 0.00 0.00 53 970.8
20260508111540 44 2 2.0 5.0 0.00 0.00 0.00 51 970.9
20260508110038 44 1 0.0 2.0 0.00 0.00 0.00 53 970.8
20260508104540 44 1 0.0 2.0 0.00 0.00 0.00 52 970.7
20260508103039 43 1 0.0 1.0 0.00 0.00 0.00 52 970.7
20260508101543 43 1 0.0 1.0 0.00 0.00 0.00 52 970.9
20260508100037 44 1 0.0 1.0 0.00 0.00 0.00 52 970.8
20260508094535 44 1 0.0 0.0 0.00 0.00 0.00 51 970.9
20260508093037 44 1 0.0 2.0 0.00 0.00 0.00 50 970.8
20260508091534 43 10 0.0 0.0 0.00 0.00 0.00 51 970.8
20260508090037 44 10 0.0 2.0 0.00 0.00 0.00 49 970.9
20260508084532 45 10 0.0 2.0 0.00 0.00 0.00 49 970.8
20260508083033 45 10 0.0 1.0 0.00 0.00 0.00 49 970.9
20260508081531 45 10 0.0 0.0 0.00 0.00 0.00 49 970.9
20260508080050 45 10 0.0 0.0 0.00 0.00 0.00 49 971.1
20260508074527 45 10 0.0 0.0 0.00 0.00 0.00 49 971.2
20260508073028 44 10 0.0 0.0 0.00 0.00 0.00 50 971.2
20260508071527 44 10 0.0 0.0 0.00 0.00 0.00 51 971.3
20260508070026 44 10 0.0 3.0 0.00 0.00 0.00 51 971.3
20260508064537 45 10 0.0 3.0 0.00 0.00 0.00 51 971.5
20260508063018 46 10 2.0 5.0 0.00 0.00 0.00 50 971.5
20260508061519 47 360 2.0 3.0 0.00 0.00 0.00 49 971.6
20260508060013 48 360 2.0 4.0 0.00 0.00 0.00 47 971.7
20260508054521 48 360 1.0 2.0 0.00 0.00 0.00 46 971.7
20260508053011 48 360 0.0 1.0 0.00 0.00 0.00 45 971.9
20260508051507 48 10 0.0 2.0 0.00 0.00 0.00 47 972.1
20260508050123 47 360 0.0 2.0 0.00 0.00 0.00 48 972.2
20260508044504 50 360 0.0 0.0 0.00 0.00 0.00 45 972.1
20260508043004 51 360 0.0 2.0 0.00 0.00 0.00 43 972.1
20260508041504 52 360 0.0 0.0 0.00 0.00 0.00 42 972.0
20260508040010 54 9 0.0 3.0 0.00 0.00 0.00 38 972.0
20260508034502 54 360 1.0 2.0 0.00 0.00 0.00 39 972.0
20260508033004 54 360 0.0 0.0 0.00 0.00 0.00 40 972.1
20260508031601 55 360 0.0 2.0 0.00 0.00 0.00 38 971.9
20260508024559 56 360 1.0 4.0 0.00 0.00 0.00 37 971.6
20260508023059 56 360 0.0 3.0 0.00 0.00 0.00 37 971.4
20260508021559 57 360 0.0 3.0 0.00 0.00 0.00 36 971.3
20260508020100 57 360 0.0 2.0 0.00 0.00 0.00 36 971.0
20260508014558 57 360 0.0 2.0 0.00 0.00 0.00 35 970.7
20260508013057 59 360 0.0 3.0 0.00 0.00 0.00 34 970.6